Time,TemperatureF,DewpointF,PressureIn,WindDirection,WindDirectionDegrees,WindSpeedMPH,WindSpeedGustMPH,Humidity,HourlyPrecipIn,Conditions,Clouds,dailyrainin,SoftwareType,DateUTC
2013-08-17 00:00:00,75.0,74.4,30.06,East,99,0.0,0.0,98,1.05,,-RA,0.00,VWS V14.01,2013-08-17 04:00:00,
2013-08-17 00:01:00,75.0,74.4,30.06,East,99,0.0,0.0,98,1.05,,-RA,0.00,VWS V14.01,2013-08-17 04:01:00,
2013-08-17 00:03:00,75.0,74.4,30.06,East,99,0.0,2.2,98,1.05,,-RA,0.00,VWS V14.01,2013-08-17 04:03:00,
2013-08-17 00:08:00,75.0,74.4,30.06,East,99,0.0,2.2,98,0.94,,-RA,0.00,VWS V14.01,2013-08-17 04:08:00,
2013-08-17 00:13:00,75.0,74.1,30.05,East,99,0.0,0.0,97,0.86,,-RA,0.00,VWS V14.01,2013-08-17 04:13:00,
2013-08-17 00:18:00,74.9,74.0,30.06,East,99,0.0,0.0,97,0.75,,-RA,0.00,VWS V14.01,2013-08-17 04:18:00,
2013-08-17 00:23:00,74.9,74.0,30.06,East,99,0.0,0.0,97,0.55,,-RA,0.01,VWS V14.01,2013-08-17 04:23:00,
2013-08-17 00:29:00,74.9,74.0,30.06,East,99,0.0,0.0,97,0.33,,-RA,0.01,VWS V14.01,2013-08-17 04:29:00,
2013-08-17 00:34:00,75.0,74.4,30.06,East,99,0.0,0.0,98,0.18,,-RA,0.01,VWS V14.01,2013-08-17 04:34:00,
2013-08-17 00:39:00,75.0,74.1,30.05,East,99,0.0,0.0,97,0.03,,-RA,0.01,VWS V14.01,2013-08-17 04:39:00,
2013-08-17 00:44:00,75.0,74.4,30.05,East,99,0.0,0.0,98,0.02,,-RA,0.01,VWS V14.01,2013-08-17 04:44:00,
2013-08-17 00:49:00,75.0,74.4,30.05,East,99,0.0,0.0,98,0.01,,-RA,0.01,VWS V14.01,2013-08-17 04:49:00,
2013-08-17 00:54:00,75.0,74.4,30.05,East,99,0.0,0.0,98,0.01,,-RA,0.01,VWS V14.01,2013-08-17 04:54:00,
2013-08-17 00:59:00,75.1,74.5,30.06,East,99,0.0,0.0,98,0.01,,-RA,0.01,VWS V14.01,2013-08-17 04:59:00,
2013-08-17 01:04:00,75.1,74.5,30.06,East,99,0.0,0.0,98,0.01,,CLR,0.01,VWS V14.01,2013-08-17 05:04:00,
2013-08-17 01:09:00,75.1,74.5,30.06,East,99,0.0,0.0,98,0.01,,CLR,0.01,VWS V14.01,2013-08-17 05:09:00,
2013-08-17 01:14:00,75.1,74.5,30.06,East,99,0.0,0.0,98,0.01,,CLR,0.01,VWS V14.01,2013-08-17 05:14:00,
2013-08-17 01:19:00,75.2,74.6,30.06,East,99,0.0,0.0,98,0.01,,CLR,0.01,VWS V14.01,2013-08-17 05:19:00,
2013-08-17 01:24:00,75.3,74.7,30.06,East,99,0.0,0.0,98,0.00,,CLR,0.01,VWS V14.01,2013-08-17 05:24:00,
2013-08-17 01:30:00,75.4,74.8,30.05,East,99,0.0,0.0,98,0.00,,CLR,0.01,VWS V14.01,2013-08-17 05:30:00,
2013-08-17 01:35:00,75.5,74.9,30.06,East,99,0.0,0.0,98,0.01,,CLR,0.02,VWS V14.01,2013-08-17 05:35:00,
2013-08-17 01:40:00,75.5,74.9,30.05,East,99,0.0,0.0,98,0.01,,CLR,0.02,VWS V14.01,2013-08-17 05:40:00,
2013-08-17 01:45:00,75.5,74.9,30.05,East,99,0.0,0.0,98,0.01,,CLR,0.02,VWS V14.01,2013-08-17 05:45:00,
2013-08-17 01:50:00,75.6,75.0,30.05,East,99,0.0,0.0,98,0.01,,CLR,0.02,VWS V14.01,2013-08-17 05:50:00,
2013-08-17 01:55:00,75.7,75.1,30.05,East,99,0.0,0.0,98,0.01,,CLR,0.02,VWS V14.01,2013-08-17 05:55:00,
2013-08-17 02:00:00,75.7,75.1,30.05,East,99,0.0,0.0,98,0.01,,OVC065,0.02,VWS V14.01,2013-08-17 06:00:00,
2013-08-17 02:05:00,75.9,75.3,30.05,East,99,0.0,0.0,98,0.01,,OVC065,0.02,VWS V14.01,2013-08-17 06:05:00,
2013-08-17 02:10:00,75.9,75.3,30.05,East,99,0.0,0.0,98,0.01,,OVC065,0.02,VWS V14.01,2013-08-17 06:10:00,
2013-08-17 02:15:00,76.0,75.4,30.05,East,99,0.0,0.0,98,0.01,,BKN027,0.02,VWS V14.01,2013-08-17 06:15:00,
2013-08-17 02:20:00,76.1,75.5,30.04,East,99,0.0,0.0,98,0.01,,BKN027,0.02,VWS V14.01,2013-08-17 06:20:00,
2013-08-17 02:26:00,76.1,75.5,30.04,East,99,0.0,0.0,98,0.01,,BKN027,0.02,VWS V14.01,2013-08-17 06:26:00,
2013-08-17 02:31:00,76.2,75.6,30.04,East,99,0.0,0.0,98,0.01,,BKN027,0.02,VWS V14.01,2013-08-17 06:31:00,
2013-08-17 02:36:00,76.1,75.5,30.03,East,99,0.0,0.0,98,0.00,,BKN027,0.02,VWS V14.01,2013-08-17 06:36:00,
2013-08-17 02:41:00,76.1,75.5,30.03,East,99,0.0,0.0,98,0.00,,BKN027,0.02,VWS V14.01,2013-08-17 06:41:00,
2013-08-17 02:46:00,76.1,75.5,30.04,East,99,0.0,0.0,98,0.00,,BKN027,0.02,VWS V14.01,2013-08-17 06:46:00,
2013-08-17 02:51:00,76.2,75.6,30.04,East,99,0.0,0.0,98,0.00,,BKN027,0.02,VWS V14.01,2013-08-17 06:51:00,
2013-08-17 02:56:00,76.3,75.7,30.04,East,99,0.0,0.0,98,0.00,,BKN027,0.02,VWS V14.01,2013-08-17 06:56:00,
2013-08-17 03:01:00,76.3,75.7,30.04,East,99,0.0,0.0,98,0.00,,CLR,0.02,VWS V14.01,2013-08-17 07:01:00,
2013-08-17 03:06:00,76.3,75.7,30.03,East,99,0.0,0.0,98,0.00,,CLR,0.02,VWS V14.01,2013-08-17 07:06:00,
2013-08-17 03:11:00,76.3,75.7,30.03,East,99,0.0,0.0,98,0.00,,CLR,0.02,VWS V14.01,2013-08-17 07:11:00,
2013-08-17 03:17:00,76.2,75.6,30.03,East,99,0.0,0.0,98,0.00,,CLR,0.02,VWS V14.01,2013-08-17 07:17:00,
2013-08-17 03:22:00,76.2,75.6,30.03,East,99,0.0,0.0,98,0.00,,CLR,0.02,VWS V14.01,2013-08-17 07:22:00,
2013-08-17 03:27:00,76.2,75.6,30.03,East,99,0.0,0.0,98,0.00,,CLR,0.02,VWS V14.01,2013-08-17 07:27:00,
2013-08-17 03:32:00,76.2,75.6,30.03,East,99,0.0,0.0,98,0.00,,CLR,0.02,VWS V14.01,2013-08-17 07:32:00,
2013-08-17 03:37:00,76.1,75.5,30.03,East,99,0.0,0.0,98,0.00,,CLR,0.02,VWS V14.01,2013-08-17 07:37:00,
2013-08-17 03:42:00,76.1,75.5,30.03,East,99,0.0,0.0,98,0.00,,CLR,0.02,VWS V14.01,2013-08-17 07:42:00,
2013-08-17 03:47:00,76.2,75.6,30.03,East,99,0.0,0.0,98,0.00,,CLR,0.02,VWS V14.01,2013-08-17 07:47:00,
2013-08-17 03:52:00,76.2,75.6,30.03,East,99,0.0,0.0,98,0.00,,CLR,0.02,VWS V14.01,2013-08-17 07:52:00,
2013-08-17 03:57:00,76.2,75.6,30.03,East,99,0.0,0.0,98,0.00,,CLR,0.02,VWS V14.01,2013-08-17 07:57:00,
2013-08-17 04:02:00,76.1,75.5,30.02,East,99,0.0,0.0,98,0.00,,SCT050,0.02,VWS V14.01,2013-08-17 08:02:00,
2013-08-17 04:08:00,76.1,75.5,30.02,East,99,0.0,0.0,98,0.00,,SCT050,0.02,VWS V14.01,2013-08-17 08:08:00,
2013-08-17 04:13:00,76.1,75.5,30.02,East,99,0.0,0.0,98,0.00,,SCT050,0.02,VWS V14.01,2013-08-17 08:13:00,
2013-08-17 04:18:00,76.0,75.4,30.03,East,99,0.0,0.0,98,0.00,,SCT050,0.02,VWS V14.01,2013-08-17 08:18:00,
2013-08-17 04:23:00,75.9,75.3,30.02,East,99,0.0,0.0,98,0.00,,SCT050,0.02,VWS V14.01,2013-08-17 08:23:00,
2013-08-17 04:28:00,75.9,75.3,30.02,East,99,0.0,0.0,98,0.00,,SCT050,0.02,VWS V14.01,2013-08-17 08:28:00,
2013-08-17 04:33:00,75.8,75.2,30.02,East,99,0.0,0.0,98,0.00,,SCT050,0.02,VWS V14.01,2013-08-17 08:33:00,
2013-08-17 04:38:00,75.9,75.3,30.02,East,99,0.0,0.0,98,0.00,,SCT050,0.02,VWS V14.01,2013-08-17 08:38:00,
2013-08-17 04:43:00,75.9,75.3,30.02,East,99,0.0,0.0,98,0.00,,SCT050,0.02,VWS V14.01,2013-08-17 08:43:00,
2013-08-17 04:48:00,76.0,75.4,30.02,East,99,0.0,0.0,98,0.00,,SCT050,0.02,VWS V14.01,2013-08-17 08:48:00,
2013-08-17 04:53:00,76.0,75.4,30.02,East,99,0.0,0.0,98,0.00,,SCT050,0.02,VWS V14.01,2013-08-17 08:53:00,
2013-08-17 04:58:00,76.0,75.4,30.01,East,99,0.0,0.0,98,0.00,,SCT050,0.02,VWS V14.01,2013-08-17 08:58:00,
2013-08-17 05:04:00,76.0,75.4,30.02,East,99,0.0,0.0,98,0.00,,SCT049,0.02,VWS V14.01,2013-08-17 09:04:00,
2013-08-17 05:09:00,76.0,75.4,30.01,East,99,0.0,0.0,98,0.00,,SCT049,0.02,VWS V14.01,2013-08-17 09:09:00,
2013-08-17 05:14:00,76.0,75.4,30.01,East,99,0.0,0.0,98,0.00,,SCT049,0.02,VWS V14.01,2013-08-17 09:14:00,
2013-08-17 05:19:00,76.0,75.4,30.01,East,99,0.0,0.0,98,0.00,,SCT049,0.02,VWS V14.01,2013-08-17 09:19:00,
2013-08-17 05:24:00,76.1,75.5,30.01,East,99,0.0,0.0,98,0.00,,SCT049,0.02,VWS V14.01,2013-08-17 09:24:00,
2013-08-17 05:29:00,76.4,76.1,30.01,East,99,0.0,0.0,99,0.00,,SCT049,0.02,VWS V14.01,2013-08-17 09:29:00,
2013-08-17 05:34:00,76.6,76.3,30.01,East,99,0.0,0.0,99,0.00,,SCT049,0.02,VWS V14.01,2013-08-17 09:34:00,
2013-08-17 05:39:00,76.7,76.1,30.01,East,99,0.0,2.2,98,0.00,,SCT049,0.02,VWS V14.01,2013-08-17 09:39:00,
2013-08-17 05:44:00,76.7,76.1,30.01,East,99,2.2,2.2,98,0.00,,SCT049,0.02,VWS V14.01,2013-08-17 09:44:00,
2013-08-17 05:49:00,76.8,76.2,30.01,East,99,0.0,2.2,98,0.00,,SCT049,0.02,VWS V14.01,2013-08-17 09:49:00,
2013-08-17 05:54:00,76.9,76.3,30.01,ESE,103,0.0,4.4,98,0.00,,SCT049,0.02,VWS V14.01,2013-08-17 09:54:00,
2013-08-17 05:59:00,77.0,76.4,30.02,ESE,103,0.0,0.0,98,0.00,,SCT049,0.02,VWS V14.01,2013-08-17 09:59:00,
2013-08-17 06:05:00,76.9,76.3,30.02,ESE,103,0.0,0.0,98,0.00,,CLR,0.02,VWS V14.01,2013-08-17 10:05:00,
2013-08-17 06:10:00,77.0,76.4,30.02,ESE,103,0.0,2.2,98,0.00,,CLR,0.02,VWS V14.01,2013-08-17 10:10:00,
2013-08-17 06:15:00,77.1,76.5,30.02,ESE,103,0.0,0.0,98,0.00,,CLR,0.02,VWS V14.01,2013-08-17 10:15:00,
2013-08-17 06:20:00,77.0,76.4,30.02,ESE,103,2.2,2.2,98,0.00,,CLR,0.02,VWS V14.01,2013-08-17 10:20:00,
2013-08-17 06:25:00,77.0,76.4,30.02,ESE,103,0.0,0.0,98,0.00,,CLR,0.02,VWS V14.01,2013-08-17 10:25:00,
2013-08-17 06:30:00,77.0,76.4,30.03,ESE,103,0.0,0.0,98,0.00,,CLR,0.02,VWS V14.01,2013-08-17 10:30:00,
2013-08-17 06:35:00,77.0,76.4,30.03,ESE,103,0.0,0.0,98,0.00,,CLR,0.02,VWS V14.01,2013-08-17 10:35:00,
2013-08-17 06:40:00,77.0,76.4,30.03,ESE,103,0.0,0.0,98,0.00,,CLR,0.02,VWS V14.01,2013-08-17 10:40:00,
2013-08-17 06:45:00,76.9,76.3,30.03,ESE,103,0.0,0.0,98,0.00,,CLR,0.02,VWS V14.01,2013-08-17 10:45:00,
2013-08-17 06:50:00,76.8,76.2,30.03,ESE,103,0.0,0.0,98,0.00,,CLR,0.02,VWS V14.01,2013-08-17 10:50:00,
2013-08-17 06:56:00,76.8,76.2,30.03,ESE,103,0.0,0.0,98,0.00,,CLR,0.02,VWS V14.01,2013-08-17 10:56:00,
2013-08-17 07:01:00,76.8,76.2,30.04,ESE,103,0.0,0.0,98,0.00,,CLR,0.02,VWS V14.01,2013-08-17 11:01:00,
2013-08-17 07:06:00,76.8,76.2,30.04,ESE,103,0.0,0.0,98,0.00,,CLR,0.02,VWS V14.01,2013-08-17 11:06:00,
2013-08-17 07:11:00,76.8,76.2,30.04,ESE,103,0.0,0.0,98,0.00,,CLR,0.02,VWS V14.01,2013-08-17 11:11:00,
2013-08-17 07:16:00,76.8,76.2,30.04,ESE,103,0.0,0.0,98,0.00,,CLR,0.02,VWS V14.01,2013-08-17 11:16:00,
2013-08-17 07:21:00,76.8,76.2,30.04,ESE,103,0.0,0.0,98,0.00,,CLR,0.02,VWS V14.01,2013-08-17 11:21:00,
2013-08-17 07:26:00,76.9,76.3,30.04,ESE,103,0.0,0.0,98,0.00,,CLR,0.02,VWS V14.01,2013-08-17 11:26:00,
2013-08-17 07:31:00,77.1,76.5,30.04,ESE,103,0.0,0.0,98,0.00,,CLR,0.02,VWS V14.01,2013-08-17 11:31:00,
2013-08-17 07:36:00,77.1,76.5,30.04,ESE,103,0.0,0.0,98,0.00,,CLR,0.02,VWS V14.01,2013-08-17 11:36:00,
2013-08-17 07:41:00,77.2,76.6,30.05,ESE,103,0.0,0.0,98,0.00,,CLR,0.02,VWS V14.01,2013-08-17 11:41:00,
2013-08-17 07:46:00,77.3,76.7,30.05,ESE,103,0.0,0.0,98,0.00,,CLR,0.02,VWS V14.01,2013-08-17 11:46:00,
2013-08-17 07:52:00,77.4,76.8,30.05,ESE,103,0.0,0.0,98,0.00,,CLR,0.02,VWS V14.01,2013-08-17 11:52:00,
2013-08-17 07:57:00,77.6,77.0,30.05,ESE,103,0.0,0.0,98,0.00,,CLR,0.02,VWS V14.01,2013-08-17 11:57:00,
2013-08-17 08:02:00,77.8,77.2,30.06,ESE,103,0.0,0.0,98,0.00,,CLR,0.02,VWS V14.01,2013-08-17 12:02:00,
2013-08-17 08:07:00,77.9,77.3,30.06,ESE,103,0.0,0.0,98,0.00,,CLR,0.02,VWS V14.01,2013-08-17 12:07:00,
2013-08-17 08:13:00,78.0,77.4,30.06,ESE,103,0.0,0.0,98,0.00,,CLR,0.02,VWS V14.01,2013-08-17 12:13:00,
2013-08-17 08:18:00,78.1,77.5,30.06,ESE,103,0.0,0.0,98,0.00,,CLR,0.02,VWS V14.01,2013-08-17 12:18:00,
2013-08-17 08:23:00,78.3,77.7,30.06,ESE,103,0.0,0.0,98,0.00,,CLR,0.02,VWS V14.01,2013-08-17 12:23:00,
2013-08-17 08:28:00,78.7,78.1,30.06,ESE,103,0.0,0.0,98,0.00,,CLR,0.02,VWS V14.01,2013-08-17 12:28:00,
2013-08-17 08:33:00,78.8,78.2,30.06,ESE,103,0.0,0.0,98,0.00,,CLR,0.02,VWS V14.01,2013-08-17 12:33:00,
2013-08-17 08:38:00,78.8,78.2,30.06,ESE,103,2.2,2.2,98,0.00,,CLR,0.02,VWS V14.01,2013-08-17 12:38:00,
2013-08-17 08:43:00,78.9,78.3,30.06,ESE,103,0.0,2.2,98,0.00,,CLR,0.02,VWS V14.01,2013-08-17 12:43:00,
2013-08-17 08:48:00,79.1,78.5,30.06,ESE,103,2.2,2.2,98,0.00,,CLR,0.02,VWS V14.01,2013-08-17 12:48:00,
2013-08-17 08:53:00,79.3,78.7,30.06,ESE,103,0.0,4.4,98,0.00,,CLR,0.02,VWS V14.01,2013-08-17 12:53:00,
2013-08-17 08:58:00,79.7,79.1,30.06,ESE,103,0.0,4.4,98,0.00,,CLR,0.02,VWS V14.01,2013-08-17 12:58:00,
2013-08-17 09:04:00,80.0,79.4,30.06,East,95,0.0,4.4,98,0.00,,CLR,0.02,VWS V14.01,2013-08-17 13:04:00,
2013-08-17 09:09:00,80.3,79.7,30.06,East,95,2.2,2.2,98,0.00,,CLR,0.02,VWS V14.01,2013-08-17 13:09:00,
2013-08-17 09:14:00,80.3,79.4,30.06,East,81,4.4,6.6,97,0.00,,CLR,0.02,VWS V14.01,2013-08-17 13:14:00,
2013-08-17 09:19:00,80.3,79.4,30.06,East,86,0.0,4.4,97,0.00,,FEW006,0.02,VWS V14.01,2013-08-17 13:19:00,
2013-08-17 09:24:00,80.5,79.6,30.06,East,86,0.0,4.4,97,0.00,,FEW006,0.02,VWS V14.01,2013-08-17 13:24:00,
2013-08-17 09:29:00,80.7,79.8,30.06,East,86,2.2,2.2,97,0.00,,FEW006,0.02,VWS V14.01,2013-08-17 13:29:00,
2013-08-17 09:34:00,81.0,79.8,30.06,SE,136,0.0,4.4,96,0.00,,FEW006,0.02,VWS V14.01,2013-08-17 13:34:00,
2013-08-17 09:39:00,81.2,80.3,30.07,SE,136,0.0,0.0,97,0.00,,FEW006,0.02,VWS V14.01,2013-08-17 13:39:00,
2013-08-17 09:44:00,81.4,80.2,30.07,SE,136,0.0,4.4,96,0.00,,FEW006,0.02,VWS V14.01,2013-08-17 13:44:00,
2013-08-17 09:49:00,81.6,80.3,30.08,SE,130,2.2,6.6,96,0.00,,FEW006,0.02,VWS V14.01,2013-08-17 13:49:00,
2013-08-17 09:54:00,81.9,80.3,30.08,SE,131,2.2,2.2,95,0.00,,FEW006,0.02,VWS V14.01,2013-08-17 13:54:00,
2013-08-17 10:00:00,82.1,79.2,30.08,SE,137,0.0,2.2,91,0.00,,FEW006,0.02,VWS V14.01,2013-08-17 14:00:00,
2013-08-17 10:05:00,82.3,79.4,30.08,SE,127,0.0,0.0,91,0.00,,BKN008,0.02,VWS V14.01,2013-08-17 14:05:00,
2013-08-17 10:10:00,82.6,79.7,30.08,SE,126,0.0,2.2,91,0.00,,BKN008,0.02,VWS V14.01,2013-08-17 14:10:00,
2013-08-17 10:15:00,82.9,79.7,30.08,SE,132,0.0,2.2,90,0.00,,BKN012,0.02,VWS V14.01,2013-08-17 14:15:00,
2013-08-17 10:20:00,83.0,79.4,30.08,SSE,160,0.0,2.2,89,0.00,,BKN012,0.02,VWS V14.01,2013-08-17 14:20:00,
2013-08-17 10:25:00,83.3,79.7,30.08,ESE,113,0.0,0.0,89,0.00,,BKN012,0.02,VWS V14.01,2013-08-17 14:25:00,
2013-08-17 10:30:00,83.7,80.1,30.08,SSE,148,2.2,4.4,89,0.00,,FEW014,0.02,VWS V14.01,2013-08-17 14:30:00,
2013-08-17 10:35:00,83.9,79.6,30.08,SSE,147,0.0,2.2,87,0.00,,FEW014,0.02,VWS V14.01,2013-08-17 14:35:00,
2013-08-17 10:40:00,84.6,80.3,30.08,ESE,118,0.0,4.4,87,0.00,,FEW014,0.02,VWS V14.01,2013-08-17 14:40:00,
2013-08-17 10:46:00,85.3,79.6,30.08,SSW,203,2.2,6.6,83,0.00,,FEW014,0.02,VWS V14.01,2013-08-17 14:46:00,
2013-08-17 10:51:00,85.9,80.1,30.08,East,86,6.6,11.0,83,0.00,,FEW014,0.02,VWS V14.01,2013-08-17 14:51:00,
2013-08-17 10:56:00,86.9,80.7,30.08,East,89,4.4,4.4,82,0.00,,FEW014,0.02,VWS V14.01,2013-08-17 14:56:00,
2013-08-17 11:01:00,87.4,79.3,30.08,NE,42,4.4,11.0,77,0.00,,BKN039,0.02,VWS V14.01,2013-08-17 15:01:00,
2013-08-17 11:06:00,87.8,80.1,30.08,East,92,2.2,8.8,78,0.00,,BKN039,0.02,VWS V14.01,2013-08-17 15:06:00,
2013-08-17 11:11:00,88.5,80.0,30.07,ENE,76,4.4,11.0,76,0.00,,BKN039,0.02,VWS V14.01,2013-08-17 15:11:00,
2013-08-17 11:16:00,88.8,80.3,30.07,ENE,76,0.0,8.8,76,0.00,,BKN041,0.02,VWS V14.01,2013-08-17 15:16:00,
2013-08-17 11:21:00,89.0,79.2,30.07,East,89,2.2,11.0,73,0.00,,BKN041,0.02,VWS V14.01,2013-08-17 15:21:00,
2013-08-17 11:26:00,89.0,79.2,30.07,ESE,111,8.8,11.0,73,0.00,,BKN041,0.02,VWS V14.01,2013-08-17 15:26:00,
2013-08-17 11:32:00,89.2,80.2,30.07,ESE,117,0.0,4.4,75,0.00,,BKN041,0.02,VWS V14.01,2013-08-17 15:32:00,
2013-08-17 11:37:00,89.3,79.5,30.07,ESE,106,2.2,6.6,73,0.00,,BKN041,0.02,VWS V14.01,2013-08-17 15:37:00,
2013-08-17 11:42:00,89.3,79.5,30.07,ESE,111,2.2,6.6,73,0.00,,BKN041,0.02,VWS V14.01,2013-08-17 15:42:00,
2013-08-17 11:47:00,89.4,78.3,30.07,ESE,108,4.4,17.6,70,0.00,,BKN041,0.02,VWS V14.01,2013-08-17 15:47:00,
2013-08-17 11:52:00,88.9,78.7,30.07,East,93,4.4,11.0,72,0.00,,BKN041,0.02,VWS V14.01,2013-08-17 15:52:00,
2013-08-17 11:57:00,88.6,78.8,30.07,ESE,109,2.2,13.2,73,0.00,,BKN041,0.02,VWS V14.01,2013-08-17 15:57:00,
2013-08-17 12:02:00,88.6,78.8,30.07,East,88,11.0,13.2,73,0.00,,SCT037,0.02,VWS V14.01,2013-08-17 16:02:00,
2013-08-17 12:07:00,88.6,78.8,30.07,East,90,13.2,13.2,73,0.00,,SCT037,0.02,VWS V14.01,2013-08-17 16:07:00,
2013-08-17 12:12:00,89.0,78.4,30.06,East,100,4.4,8.8,71,0.00,,SCT037,0.02,VWS V14.01,2013-08-17 16:12:00,
2013-08-17 12:18:00,89.4,78.8,30.06,East,80,0.0,15.4,71,0.00,,SCT037,0.02,VWS V14.01,2013-08-17 16:18:00,
2013-08-17 12:23:00,89.8,78.7,30.06,ESE,104,6.6,15.4,70,0.00,,SCT037,0.02,VWS V14.01,2013-08-17 16:23:00,
2013-08-17 12:28:00,90.2,79.1,30.06,ESE,108,4.4,13.2,70,0.00,,SCT037,0.02,VWS V14.01,2013-08-17 16:28:00,
2013-08-17 12:33:00,90.5,79.4,30.06,East,79,6.6,11.0,70,0.00,,SCT037,0.02,VWS V14.01,2013-08-17 16:33:00,
2013-08-17 12:38:00,90.5,78.9,30.05,SSE,168,2.2,8.8,69,0.00,,SCT037,0.02,VWS V14.01,2013-08-17 16:38:00,
2013-08-17 12:43:00,90.5,78.5,30.05,East,100,0.0,2.2,68,0.00,,SCT037,0.02,VWS V14.01,2013-08-17 16:43:00,
2013-08-17 12:48:00,90.6,78.6,30.05,East,84,4.4,8.8,68,0.00,,SCT037,0.02,VWS V14.01,2013-08-17 16:48:00,
2013-08-17 12:53:00,90.2,77.8,30.05,ESE,105,0.0,11.0,67,0.00,,SCT037,0.02,VWS V14.01,2013-08-17 16:53:00,
2013-08-17 12:58:00,90.1,78.1,30.05,SE,134,4.4,4.4,68,0.00,,SCT037,0.02,VWS V14.01,2013-08-17 16:58:00,
2013-08-17 13:03:00,90.6,77.7,30.05,ESE,103,6.6,6.6,66,0.00,,FEW035,0.02,VWS V14.01,2013-08-17 17:03:00,
2013-08-17 13:09:00,90.7,77.8,30.05,SSE,165,2.2,11.0,66,0.00,,FEW035,0.02,VWS V14.01,2013-08-17 17:09:00,
2013-08-17 13:14:00,90.6,78.1,30.05,SSE,152,2.2,4.4,67,0.00,,FEW035,0.02,VWS V14.01,2013-08-17 17:14:00,
2013-08-17 13:19:00,90.0,77.6,30.05,East,98,4.4,6.6,67,0.00,,FEW035,0.02,VWS V14.01,2013-08-17 17:19:00,
2013-08-17 13:24:00,89.6,78.1,30.05,ESE,103,2.2,6.6,69,0.00,,FEW035,0.02,VWS V14.01,2013-08-17 17:24:00,
2013-08-17 13:29:00,89.9,77.9,30.05,ESE,105,4.4,6.6,68,0.00,,FEW035,0.02,VWS V14.01,2013-08-17 17:29:00,
2013-08-17 13:34:00,90.3,78.3,30.04,ENE,76,17.6,17.6,68,0.00,,FEW035,0.02,VWS V14.01,2013-08-17 17:34:00,
2013-08-17 13:39:00,90.4,79.7,30.04,East,88,0.0,6.6,71,0.00,,FEW035,0.02,VWS V14.01,2013-08-17 17:39:00,
2013-08-17 13:44:00,90.3,77.9,30.04,ENE,74,2.2,8.8,67,0.00,,FEW035,0.02,VWS V14.01,2013-08-17 17:44:00,
2013-08-17 13:49:00,90.0,77.6,30.04,ESE,103,6.6,6.6,67,0.00,,FEW035,0.02,VWS V14.01,2013-08-17 17:49:00,
2013-08-17 13:54:00,90.1,78.6,30.04,ESE,113,2.2,8.8,69,0.00,,FEW035,0.02,VWS V14.01,2013-08-17 17:54:00,
2013-08-17 13:59:00,90.5,78.9,30.04,ESE,109,2.2,6.6,69,0.00,,FEW035,0.02,VWS V14.01,2013-08-17 17:59:00,
2013-08-17 14:04:00,90.9,78.0,30.04,SSE,157,0.0,8.8,66,0.00,,BKN050,0.02,VWS V14.01,2013-08-17 18:04:00,
2013-08-17 14:09:00,91.3,78.8,30.04,ENE,75,0.0,13.2,67,0.00,,BKN050,0.02,VWS V14.01,2013-08-17 18:09:00,
2013-08-17 14:14:00,92.0,78.6,30.03,East,87,2.2,4.4,65,0.00,,BKN050,0.02,VWS V14.01,2013-08-17 18:14:00,
2013-08-17 14:20:00,92.9,79.4,30.03,East,91,0.0,2.2,65,0.00,,BKN050,0.02,VWS V14.01,2013-08-17 18:20:00,
2013-08-17 14:25:00,93.4,78.9,30.03,ENE,70,4.4,4.4,63,0.00,,BKN050,0.02,VWS V14.01,2013-08-17 18:25:00,
2013-08-17 14:30:00,93.6,76.6,30.02,East,87,6.6,6.6,58,0.00,,BKN050,0.02,VWS V14.01,2013-08-17 18:30:00,
2013-08-17 14:35:00,93.3,79.3,30.02,East,86,6.6,6.6,64,0.00,,BKN050,0.02,VWS V14.01,2013-08-17 18:35:00,
2013-08-17 14:40:00,93.5,78.5,30.02,ENE,72,0.0,4.4,62,0.00,,BKN050,0.02,VWS V14.01,2013-08-17 18:40:00,
2013-08-17 14:45:00,93.2,77.3,30.02,East,93,2.2,2.2,60,0.00,,BKN050,0.02,VWS V14.01,2013-08-17 18:45:00,
2013-08-17 14:50:00,92.8,79.3,30.01,East,101,0.0,4.4,65,0.00,,BKN050,0.02,VWS V14.01,2013-08-17 18:50:00,
2013-08-17 14:55:00,92.4,78.5,30.01,ESE,117,6.6,6.6,64,0.00,,BKN050,0.02,VWS V14.01,2013-08-17 18:55:00,
2013-08-17 15:00:00,92.2,76.3,30.01,ENE,74,4.4,11.0,60,0.00,,FEW041,0.02,VWS V14.01,2013-08-17 19:00:00,
2013-08-17 15:06:00,91.8,76.9,30.01,ESE,102,11.0,13.2,62,0.00,,FEW041,0.02,VWS V14.01,2013-08-17 19:06:00,
2013-08-17 15:11:00,91.9,76.5,30.00,East,84,6.6,6.6,61,0.00,,FEW041,0.02,VWS V14.01,2013-08-17 19:11:00,
2013-08-17 15:16:00,92.0,77.6,30.00,SSE,149,2.2,8.8,63,0.00,,FEW041,0.02,VWS V14.01,2013-08-17 19:16:00,
2013-08-17 15:21:00,92.0,77.1,30.00,East,80,0.0,6.6,62,0.00,,FEW041,0.02,VWS V14.01,2013-08-17 19:21:00,
2013-08-17 15:26:00,92.1,78.7,30.00,SE,132,11.0,19.8,65,0.00,,FEW041,0.02,VWS V14.01,2013-08-17 19:26:00,
2013-08-17 15:31:00,91.9,78.5,30.00,ENE,63,11.0,15.4,65,0.00,,FEW041,0.02,VWS V14.01,2013-08-17 19:31:00,
2013-08-17 15:36:00,91.0,78.1,30.00,East,88,11.0,13.2,66,0.00,,FEW041,0.02,VWS V14.01,2013-08-17 19:36:00,
2013-08-17 15:41:00,90.2,77.3,30.00,ESE,104,8.8,17.6,66,0.00,,FEW041,0.02,VWS V14.01,2013-08-17 19:41:00,
2013-08-17 15:46:00,89.2,77.7,30.00,ENE,59,4.4,17.6,69,0.00,,FEW041,0.02,VWS V14.01,2013-08-17 19:46:00,
2013-08-17 15:51:00,88.6,77.6,30.00,East,91,13.2,19.8,70,0.00,,FEW041,0.02,VWS V14.01,2013-08-17 19:51:00,
2013-08-17 15:57:00,88.6,78.0,30.00,East,93,6.6,19.8,71,0.00,,FEW041,0.02,VWS V14.01,2013-08-17 19:57:00,
2013-08-17 16:02:00,89.7,79.5,30.00,East,97,6.6,15.4,72,0.00,,-RA,0.02,VWS V14.01,2013-08-17 20:02:00,
2013-08-17 16:07:00,91.1,78.6,30.00,East,94,6.6,13.2,67,0.00,,-RA,0.02,VWS V14.01,2013-08-17 20:07:00,
2013-08-17 16:12:00,91.7,77.3,30.00,SE,126,8.8,19.8,63,0.00,,-RA,0.02,VWS V14.01,2013-08-17 20:12:00,
2013-08-17 16:17:00,91.4,77.0,29.99,ENE,67,15.4,19.8,63,0.00,,-RA,0.02,VWS V14.01,2013-08-17 20:17:00,
2013-08-17 16:22:00,90.4,77.0,29.99,East,91,11.0,17.6,65,0.00,,-RA,0.02,VWS V14.01,2013-08-17 20:22:00,
2013-08-17 16:27:00,89.5,77.1,29.99,SE,145,11.0,17.6,67,0.00,,-RA,0.02,VWS V14.01,2013-08-17 20:27:00,
2013-08-17 16:32:00,88.8,76.4,29.99,SE,126,6.6,17.6,67,0.00,,-RA,0.02,VWS V14.01,2013-08-17 20:32:00,
2013-08-17 16:37:00,88.7,76.8,29.99,ESE,113,15.4,15.4,68,0.00,,-RA,0.02,VWS V14.01,2013-08-17 20:37:00,
2013-08-17 16:43:00,88.4,76.5,29.99,ESE,103,11.0,15.4,68,0.00,,-RA,0.02,VWS V14.01,2013-08-17 20:43:00,
2013-08-17 16:48:00,88.2,77.2,30.00,ESE,111,2.2,19.8,70,0.00,,-RA,0.02,VWS V14.01,2013-08-17 20:48:00,
2013-08-17 16:53:00,87.9,76.9,30.00,ESE,107,6.6,15.4,70,0.00,,-RA,0.02,VWS V14.01,2013-08-17 20:53:00,
2013-08-17 16:58:00,87.9,76.9,30.00,East,99,2.2,13.2,70,0.00,,-RA,0.02,VWS V14.01,2013-08-17 20:58:00,
2013-08-17 17:03:00,87.9,76.5,30.00,East,93,6.6,17.6,69,0.00,,-RA,0.02,VWS V14.01,2013-08-17 21:03:00,
2013-08-17 17:08:00,87.8,76.4,30.00,NE,50,17.6,17.6,69,0.00,,-RA,0.02,VWS V14.01,2013-08-17 21:08:00,
2013-08-17 17:13:00,87.6,77.0,30.00,East,100,6.6,13.2,71,0.00,,-RA,0.02,VWS V14.01,2013-08-17 21:13:00,
2013-08-17 17:18:00,87.5,77.4,30.01,ESE,118,2.2,6.6,72,0.00,,-RA,0.02,VWS V14.01,2013-08-17 21:18:00,
2013-08-17 17:23:00,87.4,77.7,30.01,ESE,109,4.4,11.0,73,0.00,,-RA,0.02,VWS V14.01,2013-08-17 21:23:00,
2013-08-17 17:29:00,87.2,76.7,30.01,ENE,59,6.6,22.0,71,0.00,,-RA,0.02,VWS V14.01,2013-08-17 21:29:00,
2013-08-17 17:34:00,87.0,76.9,30.01,East,88,2.2,17.6,72,0.00,,-RA,0.02,VWS V14.01,2013-08-17 21:34:00,
2013-08-17 17:39:00,86.8,76.7,30.01,East,88,6.6,11.0,72,0.00,,-RA,0.02,VWS V14.01,2013-08-17 21:39:00,
2013-08-17 17:44:00,86.8,76.7,30.01,East,92,15.4,19.8,72,0.00,,-RA,0.02,VWS V14.01,2013-08-17 21:44:00,
2013-08-17 17:49:00,86.6,76.9,30.01,East,95,4.4,15.4,73,0.00,,-RA,0.02,VWS V14.01,2013-08-17 21:49:00,
2013-08-17 17:54:00,86.3,77.0,30.01,East,92,6.6,17.6,74,0.00,,-RA,0.02,VWS V14.01,2013-08-17 21:54:00,
2013-08-17 17:59:00,85.9,76.2,30.02,SE,136,11.0,19.8,73,0.00,,-RA,0.02,VWS V14.01,2013-08-17 21:59:00,
2013-08-17 18:04:00,84.5,75.7,30.02,SE,140,11.0,15.4,75,0.00,,,0.02,VWS V14.01,2013-08-17 22:04:00,
2013-08-17 18:09:00,83.4,75.4,30.02,ESE,122,6.6,11.0,77,0.00,,,0.02,VWS V14.01,2013-08-17 22:09:00,
2013-08-17 18:14:00,82.9,75.3,30.02,SE,132,2.2,8.8,78,0.00,,,0.02,VWS V14.01,2013-08-17 22:14:00,
2013-08-17 18:19:00,82.5,74.9,30.03,SE,140,2.2,8.8,78,0.00,,,0.02,VWS V14.01,2013-08-17 22:19:00,
2013-08-17 18:24:00,82.2,75.4,30.03,ENE,70,2.2,4.4,80,0.00,,,0.02,VWS V14.01,2013-08-17 22:24:00,
2013-08-17 18:30:00,81.8,75.4,30.03,East,84,0.0,0.0,81,0.00,,,0.02,VWS V14.01,2013-08-17 22:30:00,
2013-08-17 18:35:00,81.3,75.7,30.03,East,84,0.0,0.0,83,0.00,,,0.02,VWS V14.01,2013-08-17 22:35:00,
2013-08-17 18:40:00,81.0,75.3,30.04,East,84,0.0,0.0,83,0.00,,,0.02,VWS V14.01,2013-08-17 22:40:00,
2013-08-17 18:45:00,80.7,75.4,30.04,East,84,0.0,2.2,84,0.00,,,0.02,VWS V14.01,2013-08-17 22:45:00,
2013-08-17 18:50:00,80.6,75.7,30.04,East,84,0.0,2.2,85,0.00,,,0.02,VWS V14.01,2013-08-17 22:50:00,
2013-08-17 18:55:00,80.4,75.8,30.04,East,86,0.0,0.0,86,0.00,,,0.02,VWS V14.01,2013-08-17 22:55:00,
2013-08-17 19:00:00,80.3,75.7,30.05,East,86,0.0,0.0,86,0.00,,FEW060,0.02,VWS V14.01,2013-08-17 23:00:00,
2013-08-17 19:05:00,80.1,75.9,30.06,East,86,0.0,0.0,87,0.00,,FEW060,0.02,VWS V14.01,2013-08-17 23:05:00,
2013-08-17 19:10:00,80.1,75.9,30.06,East,86,0.0,2.2,87,0.00,,FEW060,0.02,VWS V14.01,2013-08-17 23:10:00,
2013-08-17 19:15:00,80.0,75.8,30.06,East,86,0.0,0.0,87,0.00,,FEW060,0.02,VWS V14.01,2013-08-17 23:15:00,
2013-08-17 19:20:00,79.9,75.7,30.06,East,86,0.0,0.0,87,0.00,,FEW060,0.02,VWS V14.01,2013-08-17 23:20:00,
2013-08-17 19:26:00,79.8,75.9,30.06,East,86,0.0,0.0,88,0.00,,FEW060,0.02,VWS V14.01,2013-08-17 23:26:00,
2013-08-17 19:31:00,79.7,75.8,30.07,East,86,0.0,0.0,88,0.00,,CLR,0.02,VWS V14.01,2013-08-17 23:31:00,
2013-08-17 19:36:00,79.7,75.8,30.07,East,86,0.0,0.0,88,0.00,,CLR,0.02,VWS V14.01,2013-08-17 23:36:00,
2013-08-17 19:41:00,79.6,75.7,30.07,East,86,0.0,0.0,88,0.00,,CLR,0.02,VWS V14.01,2013-08-17 23:41:00,
2013-08-17 19:46:00,79.6,75.7,30.07,East,86,0.0,0.0,88,0.00,,CLR,0.02,VWS V14.01,2013-08-17 23:46:00,
2013-08-17 19:51:00,79.5,75.6,30.07,East,86,0.0,0.0,88,0.00,,CLR,0.02,VWS V14.01,2013-08-17 23:51:00,
2013-08-17 19:56:00,79.4,75.9,30.07,East,86,0.0,0.0,89,0.00,,CLR,0.02,VWS V14.01,2013-08-17 23:56:00,
2013-08-17 20:01:00,79.3,75.8,30.07,East,86,0.0,0.0,89,0.00,,FEW002,0.02,VWS V14.01,2013-08-18 00:01:00,
2013-08-17 20:06:00,79.3,75.8,30.07,East,86,0.0,0.0,89,0.00,,FEW002,0.02,VWS V14.01,2013-08-18 00:06:00,
2013-08-17 20:11:00,79.2,76.0,30.07,East,86,0.0,0.0,90,0.00,,FEW002,0.02,VWS V14.01,2013-08-18 00:11:00,
2013-08-17 20:17:00,79.1,75.9,30.07,East,86,0.0,0.0,90,0.00,,CLR,0.02,VWS V14.01,2013-08-18 00:17:00,
2013-08-17 20:22:00,79.1,75.9,30.07,East,86,0.0,0.0,90,0.00,,CLR,0.02,VWS V14.01,2013-08-18 00:22:00,
2013-08-17 20:27:00,79.1,76.2,30.07,East,86,0.0,0.0,91,0.00,,CLR,0.02,VWS V14.01,2013-08-18 00:27:00,
2013-08-17 20:32:00,79.0,76.5,30.07,East,86,0.0,0.0,92,0.00,,CLR,0.02,VWS V14.01,2013-08-18 00:32:00,
2013-08-17 20:37:00,78.9,76.4,30.07,East,86,0.0,0.0,92,0.00,,CLR,0.02,VWS V14.01,2013-08-18 00:37:00,
2013-08-17 20:42:00,78.7,76.2,30.07,East,86,0.0,0.0,92,0.00,,CLR,0.02,VWS V14.01,2013-08-18 00:42:00,
2013-08-17 20:47:00,78.6,76.1,30.07,East,86,0.0,0.0,92,0.00,,CLR,0.02,VWS V14.01,2013-08-18 00:47:00,
2013-08-17 20:52:00,78.6,76.1,30.07,East,86,0.0,0.0,92,0.00,,CLR,0.02,VWS V14.01,2013-08-18 00:52:00,
2013-08-17 20:58:00,78.6,76.1,30.08,East,86,0.0,0.0,92,0.00,,CLR,0.02,VWS V14.01,2013-08-18 00:58:00,
2013-08-17 21:03:00,78.5,76.3,30.08,East,86,0.0,0.0,93,0.00,,CLR,0.02,VWS V14.01,2013-08-18 01:03:00,
2013-08-17 21:08:00,78.5,76.3,30.08,East,86,0.0,0.0,93,0.00,,CLR,0.02,VWS V14.01,2013-08-18 01:08:00,
2013-08-17 21:13:00,78.4,76.2,30.08,East,86,0.0,0.0,93,0.00,,CLR,0.02,VWS V14.01,2013-08-18 01:13:00,
2013-08-17 21:18:00,78.5,76.3,30.08,East,86,0.0,0.0,93,0.00,,CLR,0.02,VWS V14.01,2013-08-18 01:18:00,
2013-08-17 21:23:00,78.5,76.6,30.08,East,86,0.0,0.0,94,0.00,,CLR,0.02,VWS V14.01,2013-08-18 01:23:00,
2013-08-17 21:28:00,78.5,76.6,30.08,East,86,0.0,0.0,94,0.00,,CLR,0.02,VWS V14.01,2013-08-18 01:28:00,
2013-08-17 21:33:00,78.6,76.7,30.08,East,86,0.0,0.0,94,0.00,,CLR,0.02,VWS V14.01,2013-08-18 01:33:00,
2013-08-17 21:38:00,78.7,76.8,30.08,East,86,0.0,2.2,94,0.00,,CLR,0.02,VWS V14.01,2013-08-18 01:38:00,
2013-08-17 21:43:00,78.8,76.6,30.08,East,86,0.0,0.0,93,0.00,,CLR,0.02,VWS V14.01,2013-08-18 01:43:00,
2013-08-17 21:48:00,78.8,76.9,30.08,East,86,0.0,0.0,94,0.00,,CLR,0.02,VWS V14.01,2013-08-18 01:48:00,
2013-08-17 21:53:00,78.8,76.9,30.09,East,86,0.0,0.0,94,0.00,,CLR,0.02,VWS V14.01,2013-08-18 01:53:00,
2013-08-17 21:59:00,78.8,76.9,30.09,East,86,0.0,0.0,94,0.00,,CLR,0.02,VWS V14.01,2013-08-18 01:59:00,
2013-08-17 22:04:00,78.8,76.9,30.09,East,86,0.0,0.0,94,0.00,,CLR,0.02,VWS V14.01,2013-08-18 02:04:00,
2013-08-17 22:09:00,78.8,76.9,30.09,East,86,0.0,0.0,94,0.00,,CLR,0.02,VWS V14.01,2013-08-18 02:09:00,
2013-08-17 22:14:00,78.7,76.8,30.09,East,86,0.0,0.0,94,0.00,,CLR,0.02,VWS V14.01,2013-08-18 02:14:00,
2013-08-17 22:19:00,78.7,76.8,30.09,East,86,0.0,0.0,94,0.00,,CLR,0.02,VWS V14.01,2013-08-18 02:19:00,
2013-08-17 22:24:00,78.6,76.7,30.09,East,86,0.0,0.0,94,0.00,,CLR,0.02,VWS V14.01,2013-08-18 02:24:00,
2013-08-17 22:29:00,78.5,76.6,30.09,East,86,0.0,0.0,94,0.01,,CLR,0.03,VWS V14.01,2013-08-18 02:29:00,
2013-08-17 22:34:00,78.5,76.6,30.09,East,86,0.0,0.0,94,0.01,,CLR,0.03,VWS V14.01,2013-08-18 02:34:00,
2013-08-17 22:39:00,78.4,76.5,30.09,East,86,0.0,0.0,94,0.01,,CLR,0.03,VWS V14.01,2013-08-18 02:39:00,
2013-08-17 22:44:00,78.4,76.5,30.09,East,86,0.0,0.0,94,0.01,,CLR,0.03,VWS V14.01,2013-08-18 02:44:00,
2013-08-17 22:50:00,78.4,76.8,30.09,East,86,0.0,0.0,95,0.01,,CLR,0.03,VWS V14.01,2013-08-18 02:50:00,
2013-08-17 22:55:00,78.4,76.8,30.10,East,86,0.0,0.0,95,0.01,,CLR,0.03,VWS V14.01,2013-08-18 02:55:00,
2013-08-17 23:00:00,78.4,76.8,30.09,East,86,0.0,0.0,95,0.01,,CLR,0.03,VWS V14.01,2013-08-18 03:00:00,
2013-08-17 23:05:00,78.3,76.8,30.09,East,86,0.0,0.0,95,0.01,,CLR,0.03,VWS V14.01,2013-08-18 03:05:00,
2013-08-17 23:10:00,78.3,76.8,30.09,East,86,0.0,0.0,95,0.01,,CLR,0.03,VWS V14.01,2013-08-18 03:10:00,
2013-08-17 23:15:00,78.3,76.8,30.09,East,86,0.0,0.0,95,0.01,,CLR,0.03,VWS V14.01,2013-08-18 03:15:00,
2013-08-17 23:20:00,78.3,76.8,30.09,East,86,0.0,0.0,95,0.01,,CLR,0.03,VWS V14.01,2013-08-18 03:20:00,
2013-08-17 23:25:00,78.2,76.7,30.08,East,86,0.0,0.0,95,0.01,,CLR,0.03,VWS V14.01,2013-08-18 03:25:00,
2013-08-17 23:30:00,78.3,77.1,30.08,East,86,0.0,0.0,96,0.00,,CLR,0.03,VWS V14.01,2013-08-18 03:30:00,
2013-08-17 23:35:00,78.4,77.2,30.08,East,86,0.0,0.0,96,0.00,,CLR,0.03,VWS V14.01,2013-08-18 03:35:00,
2013-08-17 23:40:00,78.5,76.9,30.08,East,87,4.4,4.4,95,0.00,,CLR,0.03,VWS V14.01,2013-08-18 03:40:00,
2013-08-17 23:46:00,78.5,76.9,30.08,East,89,2.2,2.2,95,0.00,,CLR,0.03,VWS V14.01,2013-08-18 03:46:00,
2013-08-17 23:51:00,78.6,77.1,30.08,East,89,0.0,2.2,95,0.00,,CLR,0.03,VWS V14.01,2013-08-18 03:51:00,
2013-08-17 23:56:00,78.8,77.2,30.08,ESE,118,0.0,8.8,95,0.00,,CLR,0.03,VWS V14.01,2013-08-18 03:56:00,